EW6810 Weather Reports


Display with metric or nautical units.
time (UTC)temp
F
wind
direction
speed
MPH
gust
MPH
rain 1hr
in
rain 24hr
in
rain mn
in
humidity
%
barometer
mb
20260903211535 63 294 2.0 7.0 0.00 0.60 0.04 72 1007.1
20260903211036 62 142 2.0 6.0 0.00 0.60 0.04 72 1007.1
20260903210635 62 142 3.0 6.0 0.00 0.60 0.04 70 1007.1
20260903210058 63 92 2.0 9.0 0.00 0.60 0.04 68 1007.0
20260903205554 65 150 3.0 8.0 0.00 0.60 0.04 62 1007.1
20260903205053 65 214 2.0 8.0 0.00 0.60 0.04 64 1007.0
20260903204553 64 171 3.0 8.0 0.00 0.60 0.04 65 1007.0
20260903204050 63 221 2.0 5.0 0.00 0.60 0.04 70 1007.0
20260903203549 63 140 1.0 4.0 0.00 0.60 0.04 72 1006.9
20260903203049 62 119 0.0 4.0 0.00 0.60 0.04 78 1007.0
20260903202552 61 180 1.0 4.0 0.00 0.60 0.04 75 1007.0
20260903202048 61 188 0.0 3.0 0.00 0.60 0.04 78 1007.0
20260903201548 62 192 0.0 4.0 0.00 0.60 0.04 77 1007.0
20260903201047 62 192 1.0 6.0 0.00 0.60 0.04 78 1007.0
20260903200647 62 157 2.0 6.0 0.00 0.60 0.04 78 1007.0
20260903200056 61 204 2.0 6.0 0.00 0.60 0.04 81 1007.1
20260903195555 60 96 1.0 4.0 0.00 0.60 0.04 84 1007.2
20260903195056 60 138 2.0 4.0 0.00 0.60 0.04 83 1007.2
20260903194557 60 210 1.0 4.0 0.00 0.60 0.04 84 1007.2
20260903194055 60 5 1.0 4.0 0.00 0.60 0.04 85 1007.3
20260903193556 60 241 1.0 7.0 0.00 0.60 0.04 86 1007.2
20260903193057 60 142 1.0 7.0 0.00 0.60 0.04 84 1007.3
20260903192555 60 241 1.0 5.0 0.00 0.60 0.04 83 1007.2
20260903192051 59 359 0.0 11.0 0.00 0.60 0.04 88 1007.2
20260903191551 59 301 1.0 11.0 0.00 0.60 0.04 89 1007.0
20260903191049 58 279 1.0 5.0 0.00 0.60 0.04 91 1007.2
20260903190548 57 277 2.0 7.0 0.00 0.60 0.04 90 1007.1
20260903190048 57 200 2.0 7.0 0.00 0.60 0.04 92 1007.0
20260903185546 57 321 0.0 3.0 0.00 0.60 0.04 92 1007.0
20260903185045 56 321 0.0 4.0 0.01 0.60 0.04 92 1007.2
20260903184544 56 321 0.0 4.0 0.01 0.60 0.04 93 1007.2
20260903184042 55 48 1.0 4.0 0.01 0.60 0.04 93 1007.3
20260903183544 55 261 1.0 2.0 0.01 0.60 0.04 93 1007.2
20260903183040 55 271 1.0 4.0 0.01 0.60 0.04 93 1007.2
20260903182542 55 271 0.0 4.0 0.01 0.60 0.04 92 1007.1
20260903182039 55 256 0.0 3.0 0.01 0.60 0.04 92 1007.1
20260903181539 55 256 1.0 3.0 0.01 0.60 0.04 93 1007.1
20260903181038 55 327 0.0 2.0 0.01 0.60 0.04 93 1007.1
20260903180637 54 327 0.0 2.0 0.01 0.60 0.04 92 1007.1
20260903175553 55 327 0.0 1.0 0.00 0.59 0.03 92 1006.9
20260903175053 55 327 0.0 1.0 0.00 0.59 0.03 92 1006.9
20260903174556 55 327 0.0 1.0 0.00 0.59 0.03 92 1006.8
20260903174053 55 327 0.0 1.0 0.00 0.59 0.03 92 1006.8
20260903173552 55 327 0.0 2.0 0.00 0.59 0.03 92 1006.8
20260903173101 55 327 0.0 2.0 0.00 0.59 0.03 92 1006.7
20260903172555 55 327 0.0 2.0 0.00 0.59 0.03 92 1006.7
20260903172050 55 327 0.0 3.0 0.00 0.59 0.03 92 1006.6
20260903171549 55 327 0.0 3.0 0.00 0.59 0.03 92 1006.5
20260903171049 54 271 0.0 3.0 0.02 0.59 0.03 92 1006.3
20260903170650 54 277 1.0 3.0 0.02 0.59 0.03 92 1006.3
20260903170128 55 251 0.0 3.0 0.02 0.59 0.03 92 1006.3
20260903165544 54 245 0.0 4.0 0.02 0.59 0.03 92 1006.3
20260903165043 54 245 0.0 3.0 0.02 0.59 0.03 92 1006.3
20260903164549 54 254 0.0 2.0 0.02 0.59 0.03 91 1006.2
20260903164043 55 254 0.0 2.0 0.02 0.59 0.03 91 1006.3
20260903163545 55 252 0.0 2.0 0.02 0.59 0.03 91 1006.3
20260903163044 54 252 0.0 2.0 0.02 0.59 0.03 91 1006.3
20260903162544 54 252 0.0 2.0 0.02 0.59 0.03 91 1006.3
20260903162041 54 252 0.0 3.0 0.02 0.59 0.03 91 1006.3
20260903161552 54 252 0.0 3.0 0.02 0.59 0.03 91 1006.4
20260903161039 55 150 0.0 3.0 0.01 0.56 0.02 91 1006.4
20260903160507 55 219 0.0 4.0 0.00 0.56 0.01 91 1006.3
20260903160059 55 138 1.0 4.0 0.00 0.56 0.01 91 1006.2
20260903155557 55 333 0.0 3.0 0.00 0.56 0.01 91 1006.1
20260903155058 55 325 0.0 2.0 0.00 0.56 0.01 91 1006.0
20260903154558 54 325 0.0 3.0 0.00 0.56 0.01 91 1005.8
20260903154056 54 324 0.0 3.0 0.00 0.56 0.01 91 1005.8
20260903153554 54 7 1.0 3.0 0.00 0.56 0.01 91 1005.8
20260903153054 54 239 0.0 3.0 0.00 0.56 0.01 90 1005.8
20260903152555 54 239 1.0 3.0 0.00 0.56 0.01 90 1005.8
20260903152052 54 352 0.0 3.0 0.00 0.56 0.01 91 1005.8
20260903151553 54 352 0.0 3.0 0.00 0.56 0.01 90 1005.8
20260903151054 54 353 0.0 2.0 0.00 0.56 0.01 90 1005.8
20260903150653 54 353 0.0 2.0 0.00 0.56 0.01 90 1005.8
20260903150050 54 353 0.0 2.0 0.00 0.56 0.01 90 1005.7
20260903145551 54 353 1.0 3.0 0.00 0.62 0.01 90 1005.7
20260903145050 54 353 1.0 3.0 0.00 0.62 0.01 90 1005.7
20260903144547 53 353 0.0 8.0 0.00 0.62 0.01 89 1005.6
20260903144047 53 352 1.0 8.0 0.00 0.62 0.01 90 1005.6
20260903143545 53 10 2.0 10.0 0.00 0.62 0.01 90 1005.5
20260903143049 53 44 4.0 10.0 0.00 0.62 0.01 90 1005.5
20260903142547 53 20 2.0 7.0 0.00 0.62 0.01 90 1005.4
20260903142045 53 145 1.0 5.0 0.00 0.62 0.01 90 1005.4
20260903141540 53 355 1.0 5.0 0.00 0.62 0.01 90 1005.4
20260903141040 53 266 2.0 5.0 0.00 0.62 0.01 90 1005.4
20260903140539 53 348 1.0 4.0 0.00 0.62 0.01 89 1005.3
20260903140054 53 47 1.0 6.0 0.01 0.62 0.01 89 1005.2
20260903135538 54 358 2.0 6.0 0.01 0.62 0.01 89 1005.1
20260903135037 54 356 1.0 3.0 0.01 0.62 0.01 89 1005.1
20260903134541 54 356 1.0 3.0 0.01 0.62 0.01 89 1005.0
20260903134038 54 354 0.0 3.0 0.01 0.62 0.01 89 1005.0
20260903133537 54 353 0.0 1.0 0.01 0.62 0.01 88 1005.0
20260903133036 54 353 0.0 4.0 0.01 0.62 0.01 88 1005.0
20260903132536 54 353 2.0 4.0 0.01 0.62 0.01 88 1005.0
20260903132035 54 10 1.0 4.0 0.01 0.62 0.01 87 1004.9
20260903131537 54 12 1.0 5.0 0.01 0.62 0.01 87 1005.0
20260903131034 54 9 2.0 9.0 0.01 0.62 0.01 86 1004.8
20260903130535 54 15 3.0 9.0 0.00 0.61 0.00 86 1004.8
20260903130033 54 36 2.0 4.0 0.00 0.61 0.00 86 1004.7
20260903125534 54 83 1.0 6.0 0.00 0.61 0.00 86 1004.6
20260903125031 54 42 2.0 6.0 0.00 0.61 0.00 86 1004.6
20260903124531 54 346 2.0 7.0 0.00 0.61 0.00 87 1004.5
20260903124030 54 360 1.0 3.0 0.00 0.61 0.00 87 1004.5
20260903123530 54 359 0.0 4.0 0.00 0.61 0.00 87 1004.5
20260903123037 54 360 2.0 5.0 0.00 0.61 0.00 86 1004.5
20260903122529 54 18 0.0 4.0 0.00 0.61 0.00 86 1004.4
20260903122028 54 7 1.0 4.0 0.00 0.61 0.00 87 1004.4
20260903121530 54 359 1.0 4.0 0.00 0.61 0.00 87 1004.4
20260903121027 54 13 1.0 4.0 0.00 0.61 0.00 87 1004.4
20260903120528 54 12 0.0 3.0 0.00 0.61 0.00 87 1004.4
20260903120027 54 44 1.0 4.0 0.00 0.61 0.00 87 1004.3
20260903115530 54 11 1.0 6.0 0.00 0.71 0.00 87 1004.3
20260903115026 54 12 1.0 6.0 0.00 0.71 0.00 87 1004.3
20260903114531 54 20 2.0 7.0 0.00 0.71 0.00 88 1004.3
20260903114025 54 10 2.0 13.0 0.00 0.71 0.00 88 1004.2
20260903113525 54 1 3.0 13.0 0.00 0.71 0.00 88 1004.2
20260903113025 54 50 1.0 9.0 0.00 0.71 0.00 88 1004.3
20260903112528 54 22 1.0 5.0 0.00 0.71 0.00 89 1004.3
20260903112023 54 17 1.0 3.0 0.00 0.71 0.00 89 1004.2
20260903111523 54 17 1.0 9.0 0.00 0.71 0.00 89 1004.2
20260903111022 54 360 1.0 9.0 0.00 0.71 0.00 89 1004.1
20260903110522 54 40 0.0 4.0 0.00 0.71 0.00 90 1004.1
20260903110022 54 40 1.0 7.0 0.00 0.71 0.00 90 1004.1
20260903105521 54 28 2.0 7.0 0.00 0.76 0.00 90 1004.0
20260903105021 54 346 1.0 7.0 0.00 0.76 0.00 90 1004.1
20260903104521 54 9 1.0 8.0 0.00 0.76 0.00 90 1004.0
20260903104021 54 148 0.0 8.0 0.00 0.76 0.00 90 1004.0
20260903103520 54 6 1.0 7.0 0.00 0.76 0.00 91 1004.0
20260903103020 54 333 2.0 7.0 0.00 0.76 0.00 91 1004.0
20260903102521 54 323 1.0 7.0 0.00 0.76 0.00 91 1004.1
20260903102022 54 24 2.0 8.0 0.00 0.76 0.00 91 1004.0
20260903101518 54 18 3.0 9.0 0.00 0.76 0.00 91 1004.0
20260903101019 54 354 0.0 9.0 0.00 0.76 0.00 91 1004.0
20260903100517 54 332 1.0 5.0 0.00 0.76 0.00 92 1004.0
20260903100028 54 28 1.0 8.0 0.00 0.76 0.00 92 1004.0
20260903095517 54 36 2.0 8.0 0.00 0.83 0.00 92 1003.9
20260903095018 54 8 1.0 6.0 0.00 0.83 0.00 92 1004.0
20260903094516 54 7 1.0 5.0 0.00 0.83 0.00 92 1003.9
20260903094017 54 6 1.0 7.0 0.00 0.83 0.00 92 1003.9
20260903093515 54 30 1.0 7.0 0.00 0.83 0.00 92 1003.8
20260903093037 54 15 1.0 5.0 0.00 0.83 0.00 92 1003.9
20260903092514 54 3 0.0 7.0 0.00 0.83 0.00 92 1003.8
20260903092014 54 357 0.0 7.0 0.00 0.83 0.00 92 1003.8
20260903091514 54 19 1.0 5.0 0.00 0.83 0.00 92 1003.8
20260903091014 54 101 1.0 5.0 0.00 0.83 0.00 93 1003.8
20260903090516 54 144 0.0 6.0 0.00 0.83 0.00 92 1003.8
20260903090014 54 115 1.0 6.0 0.00 0.83 0.00 92 1003.8
20260903085514 54 37 1.0 4.0 0.00 0.83 0.00 92 1003.8
20260903085013 54 352 0.0 5.0 0.00 0.83 0.00 93 1003.8
20260903084527 54 317 1.0 5.0 0.00 0.83 0.00 93 1003.8
20260903084013 54 161 1.0 3.0 0.00 0.83 0.00 93 1003.8
20260903083512 54 92 0.0 4.0 0.00 0.83 0.00 93 1003.8
20260903083012 54 316 1.0 7.0 0.00 0.83 0.00 93 1003.7
20260903082512 54 111 0.0 7.0 0.00 0.83 0.00 93 1003.8
20260903082010 54 22 0.0 6.0 0.00 0.83 0.00 93 1003.7
20260903081512 54 352 0.0 6.0 0.00 0.83 0.00 93 1003.6
20260903081010 54 351 1.0 5.0 0.00 0.83 0.00 93 1003.7
20260903080509 54 120 1.0 7.0 0.00 0.83 0.00 93 1003.7
20260903080010 54 18 2.0 7.0 0.00 0.83 0.00 93 1003.6
20260903075508 54 341 2.0 8.0 0.00 0.83 0.00 93 1003.5
20260903075008 54 354 2.0 8.0 0.00 0.83 0.00 93 1003.5
20260903074509 54 188 1.0 14.0 0.00 0.83 0.00 93 1003.5
20260903074009 54 27 2.0 14.0 0.00 0.83 0.00 93 1003.4
20260903073507 54 213 2.0 6.0 0.00 0.83 0.00 93 1003.4
20260903073009 54 360 1.0 4.0 0.00 0.83 0.00 93 1003.3
20260903072505 54 352 1.0 9.0 0.00 0.83 0.00 93 1003.4
20260903072007 54 101 0.0 9.0 0.00 0.83 0.00 93 1003.3
20260903071513 54 31 1.0 6.0 0.00 0.83 0.00 93 1003.2
20260903071004 54 206 1.0 6.0 0.00 0.83 0.00 93 1003.2
20260903070600 54 209 2.0 7.0 0.00 0.83 0.00 93 1003.2
20260903070100 54 348 0.0 4.0 0.00 0.83 0.00 93 1003.2
20260903065602 54 349 1.0 5.0 0.00 0.85 0.83 93 1003.2
20260903065059 54 346 1.0 5.0 0.00 0.85 0.83 93 1003.0
20260903064559 54 327 1.0 4.0 0.00 0.85 0.83 93 1003.1
20260903064059 54 14 0.0 6.0 0.00 0.85 0.83 93 1003.2
20260903063558 54 340 1.0 6.0 0.00 0.85 0.83 93 1003.1
20260903063059 54 28 1.0 4.0 0.00 0.85 0.83 93 1003.0
20260903062659 54 6 2.0 5.0 0.00 0.85 0.83 93 1003.1
20260903062100 54 148 0.0 5.0 0.00 0.85 0.83 93 1003.1
20260903061557 54 78 0.0 4.0 0.00 0.85 0.83 93 1003.0
20260903061057 54 41 2.0 4.0 0.00 0.85 0.83 93 1003.0
20260903060658 54 41 0.0 6.0 0.00 0.85 0.83 93 1002.9
20260903060057 54 24 1.0 6.0 0.00 0.85 0.83 93 1002.9
20260903055557 54 18 1.0 4.0 0.00 0.85 0.83 93 1002.9
20260903055057 54 7 1.0 5.0 0.00 0.85 0.83 93 1002.9
20260903054555 54 5 1.0 5.0 0.00 0.85 0.83 92 1003.0
20260903054055 54 357 1.0 7.0 0.00 0.85 0.83 93 1003.0
20260903053558 54 348 1.0 6.0 0.00 0.85 0.83 93 1003.0
20260903053055 54 36 2.0 6.0 0.00 0.85 0.83 93 1003.0
20260903052552 54 26 2.0 5.0 0.00 0.85 0.83 92 1002.9
20260903052051 54 172 2.0 5.0 0.00 0.85 0.83 92 1002.7
20260903051557 54 3 1.0 6.0 0.00 0.85 0.83 92 1002.6
20260903051052 54 201 1.0 6.0 0.02 0.85 0.83 92 1002.5
20260903050550 55 17 1.0 4.0 0.16 0.85 0.83 92 1002.4
20260903050049 55 4 1.0 4.0 0.21 0.85 0.83 92 1002.3
20260903045549 55 350 1.0 4.0 0.21 0.85 0.83 92 1002.3
20260903045050 55 23 1.0 9.0 0.21 0.85 0.83 92 1002.3
20260903044549 55 21 2.0 11.0 0.21 0.85 0.83 92 1002.0
20260903044048 55 2 1.0 11.0 0.21 0.85 0.83 92 1002.0
20260903043547 55 47 2.0 11.0 0.21 0.85 0.83 92 1001.9
20260903043047 56 346 2.0 11.0 0.22 0.85 0.83 91 1001.7
20260903042647 56 11 1.0 7.0 0.22 0.85 0.83 91 1001.6
20260903042047 56 29 2.0 8.0 0.22 0.85 0.83 91 1001.5
20260903041546 56 65 1.0 8.0 0.22 0.85 0.83 91 1001.4
20260903041045 56 8 2.0 8.0 0.19 0.82 0.80 91 1001.4
20260903040545 56 168 1.0 8.0 0.04 0.67 0.65 90 1001.2
20260903040045 56 161 2.0 8.0 0.01 0.64 0.62 90 1000.6
20260903035544 56 39 2.0 9.0 0.01 0.64 0.62 90 1000.4
20260903035044 56 350 2.0 9.0 0.01 0.64 0.62 90 1000.4
20260903034544 56 115 1.0 8.0 0.01 0.64 0.62 90 1000.4
20260903034047 56 19 2.0 8.0 0.01 0.64 0.62 91 1000.3
20260903033544 56 18 2.0 14.0 0.01 0.64 0.62 91 1000.3
20260903033044 56 88 4.0 14.0 0.00 0.63 0.61 91 1000.3
20260903032541 56 2 2.0 9.0 0.00 0.63 0.61 91 1000.3
20260903032041 56 33 3.0 10.0 0.00 0.63 0.61 91 1000.4
20260903031540 56 350 1.0 10.0 0.00 0.63 0.61 91 1000.3
20260903031041 56 30 1.0 9.0 0.00 0.63 0.61 91 1000.4
20260903030641 56 37 2.0 13.0 0.00 0.63 0.61 91 1000.4
20260903030054 56 46 3.0 14.0 0.01 0.63 0.61 91 1000.2
20260903025553 56 59 6.0 14.0 0.02 0.63 0.61 91 1000.3
20260903025053 55 56 1.0 13.0 0.03 0.63 0.61 91 1000.2
20260903024553 55 342 3.0 13.0 0.05 0.63 0.61 91 1000.2
20260903024052 55 40 3.0 9.0 0.06 0.63 0.61 91 1000.2
20260903023557 55 43 3.0 12.0 0.07 0.63 0.61 91 1000.2
20260903023054 55 25 2.0 14.0 0.08 0.63 0.61 91 1000.1
20260903022553 55 21 4.0 14.0 0.08 0.63 0.61 91 1000.2
20260903022054 55 93 4.0 12.0 0.09 0.63 0.61 91 1000.0
20260903021552 55 14 5.0 12.0 0.09 0.63 0.61 91 1000.1
20260903021050 55 350 3.0 15.0 0.09 0.63 0.61 91 1000.1
20260903020549 55 350 5.0 15.0 0.09 0.62 0.61 91 1000.1
20260903020052 55 356 3.0 10.0 0.09 0.61 0.60 91 1000.2
20260903015549 55 156 1.0 11.0 0.09 0.61 0.59 91 1000.2
20260903015051 55 321 1.0 11.0 0.08 0.59 0.56 91 1000.1
20260903014605 55 67 2.0 6.0 0.09 0.57 0.56 91 1000.1
20260903014047 55 117 1.0 11.0 0.09 0.56 0.55 91 1000.1
20260903013547 56 76 2.0 13.0 0.09 0.56 0.54 91 1000.1
20260903013046 56 295 5.0 13.0 0.09 0.55 0.54 91 1000.2
20260903012547 56 16 2.0 12.0 0.09 0.55 0.54 90 1000.3
20260903012044 56 325 4.0 12.0 0.09 0.54 0.53 90 1000.2
20260903011545 56 321 3.0 12.0 0.09 0.54 0.52 90 1000.1
20260903011044 56 338 3.0 12.0 0.10 0.54 0.52 90 1000.2
20260903010543 56 15 4.0 12.0 0.11 0.53 0.51 90 1000.1
20260903010043 56 18 1.0 8.0 0.13 0.52 0.50 90 1000.3
20260903005546 56 40 2.0 10.0 0.16 0.51 0.50 90 1000.3
20260903005042 56 3 2.0 10.0 0.17 0.51 0.50 89 1000.5
20260903004546 57 336 2.0 10.0 0.17 0.50 0.48 89 1000.4
20260903004046 57 36 1.0 10.0 0.16 0.48 0.46 89 1000.3
20260903003541 57 359 2.0 8.0 0.16 0.47 0.46 89 1000.3
20260903003042 58 152 1.0 7.0 0.15 0.46 0.45 89 1000.2
20260903002541 58 8 1.0 6.0 0.15 0.46 0.45 89 1000.3
20260903002041 58 344 1.0 4.0 0.15 0.46 0.44 88 1000.4
20260903001541 58 12 0.0 3.0 0.13 0.44 0.43 88 1000.4
20260903001040 59 13 1.0 5.0 0.12 0.43 0.42 87 1000.4
20260903000640 59 32 1.0 5.0 0.11 0.42 0.40 87 1000.4
20260903000037 59 11 1.0 3.0 0.08 0.39 0.37 86 1000.4
20260902235537 59 5 0.0 3.0 0.05 0.35 0.34 86 1000.3
20260902235036 60 3 0.0 3.0 0.04 0.35 0.33 85 1000.2
20260902234537 60 16 0.0 6.0 0.02 0.33 0.31 84 1000.1
20260902234036 60 15 1.0 6.0 0.02 0.32 0.31 83 1000.0
20260902233540 60 7 1.0 9.0 0.01 0.31 0.30 82 1000.0
20260902233037 61 38 3.0 9.0 0.01 0.31 0.30 81 999.9
20260902232537 61 13 1.0 8.0 0.01 0.31 0.30 80 1000.0
20260902232035 61 360 2.0 6.0 0.00 0.31 0.28 80 999.9
20260902231535 61 350 2.0 6.0 0.00 0.31 0.28 79 999.9
20260902231039 62 134 2.0 6.0 0.00 0.31 0.28 78 999.8
20260902230634 62 144 1.0 6.0 0.00 0.31 0.28 77 999.8
20260902230100 62 179 2.0 7.0 0.00 0.31 0.28 77 999.7
20260902225556 62 111 1.0 10.0 0.00 0.31 0.28 76 999.6
20260902225056 62 44 1.0 10.0 0.00 0.31 0.28 73 999.5
20260902224553 63 132 0.0 8.0 0.00 0.31 0.28 75 999.6
20260902224052 63 18 2.0 8.0 0.00 0.31 0.28 75 999.5
20260902223552 63 342 1.0 10.0 0.00 0.31 0.28 75 999.5
20260902223051 62 9 4.0 10.0 0.00 0.31 0.28 77 999.6
20260902222549 62 36 3.0 8.0 0.00 0.31 0.28 82 999.7
20260902222048 62 13 0.0 4.0 0.01 0.31 0.28 84 999.7
20260902221549 62 6 1.0 7.0 0.02 0.31 0.28 84 999.8
20260902221050 61 21 1.0 7.0 0.02 0.31 0.28 85 999.8
20260902220646 61 28 0.0 3.0 0.02 0.31 0.28 88 1000.0
20260902220044 60 342 1.0 5.0 0.02 0.31 0.28 88 999.9
20260902215543 60 55 1.0 5.0 0.02 0.31 0.28 88 1000.0
20260902215042 60 38 0.0 3.0 0.02 0.31 0.28 89 1000.1
20260902214544 60 36 1.0 4.0 0.02 0.31 0.28 88 1000.0
20260902214042 60 28 1.0 5.0 0.02 0.31 0.28 88 1000.1
20260902213641 60 171 1.0 7.0 0.02 0.31 0.28 88 1000.2
20260902213041 60 319 1.0 7.0 0.02 0.31 0.28 85 1000.3
20260902212540 61 275 1.0 5.0 0.02 0.31 0.28 84 1000.3
20260902212040 61 24 1.0 5.0 0.01 0.30 0.28 83 1000.2